Regional Weather Roundup
Issued by NWS Albany, NY

Home | Current Version | Previous Version | Text Only | Print | Product List | Glossary On
Versions: 1 2 3 4 5 6 7 8 9 10 11 12 13 14 15 16 17 18 19 20 21 22 23 24 25 26 27 28 29 30 31 32 33 34 35 36 37 38 39 40 41 42 43 44 45 46 47 48 49 50
000
ASUS41 KALY 291310
RWRALY

NEW YORK STATE HOURLY WEATHER ROUNDUP
NATIONAL WEATHER SERVICE ALBANY NY
900 AM EDT SUN MAR 29 2015

NOTE: "FAIR" INDICATES FEW OR NO CLOUDS BELOW 12,000 FEET WITH NO
SIGNIFICANT WEATHER AND/OR NO OBSTRUCTIONS TO VISIBILITY.

NYZ032-033-038>043-046>054-057>066-NYZ062>081-291400-
EAST


CITY           SKY/WX    TMP DP  RH WIND       PRES   REMARKS
ALBANY         SUNNY     24   7  48 CALM      30.26S
GLENS FALLS    SUNNY     23   8  52 S3        30.25R
POUGHKEEPSIE   SUNNY     27   6  41 N6        30.27R WCI  20
NEWBURGH       SUNNY     25   7  46 NW7       30.26R WCI  17
MONTGOMERY     SUNNY     28   3  34 NW7       30.25R WCI  21
WHITE PLAINS   SUNNY     27   6  41 NW15      30.23R WCI  15
ISLIP          MOSUNNY   29   9  43 N14G23    30.22R WCI  18
NEW YORK CITY  MOSUNNY   29   5  36 NW14      30.27R WCI  18
CENTRAL PARK   MOSUNNY   27   4  37 NW5       30.28R WCI  22
$$

NYZ005>009-017-018-044>046-055-056-291400-
CENTRAL


CITY           SKY/WX    TMP DP  RH WIND       PRES   REMARKS
FULTON         SUNNY     22  16  78 W5        30.29R WCI  16
SYRACUSE       MOSUNNY   25  17  72 W10       30.29R WCI  15
ROME           SUNNY     13   9  84 CALM      30.30R
ELMIRA         SUNNY     21  11  65 SW7       30.29R WCI  12
BINGHAMTON     SUNNY     19  13  77 NW8       30.21R WCI   9
MONTICELLO     SUNNY     18   9  68 W3        30.21S
$$

NYZ026>034-041>043-291400-
NORTH


CITY           SKY/WX    TMP DP  RH WIND       PRES   REMARKS
WATERTOWN      SUNNY     24  13  62 SW9       30.28R WCI  14
FORT DRUM      NOT AVBL
MASSENA        SUNNY     22   8  55 SW9       30.24R WCI  12
SARANAC LAKE   SUNNY      9   3  77 CALM      30.13R
PLATTSBURGH    SUNNY     24   6  46 SE3       30.22R
$$

NYZ001>004-010>016-019>021-291400-
WEST


CITY           SKY/WX    TMP DP  RH WIND       PRES   REMARKS
NIAGARA FALLS  MOSUNNY   23  16  74 S12       30.29R WCI  12
BUFFALO        MOSUNNY   23  14  68 SW15      30.29S WCI  10
DUNKIRK        SUNNY     24  16  71 S12G22    30.30F WCI  13
JAMESTOWN      SUNNY     16  12  86 S5        30.25R WCI   9
WELLSVILLE     SUNNY     19   9  65 W8        30.23R WCI   9
ROCHESTER      SUNNY     24  12  60 SW10      30.30R WCI  14
PENN YAN       SUNNY     24  10  55 SW8       30.28R WCI  15
$$

             KEY
       WCI = WIND CHILL INDEX
       VSB = VISIBILITY
       HX  = HEAT INDEX
$$



USA.gov is the U.S. government's official web portal to all federal, state and local government web resources and services.